Погода в Туле

Франция     48°40′45″N   5°53′46″E
темп.,
°C
ветер,
м/с
пор.,
м/с
влажн.,
%
обл.,
%
осадки,
мм/ч
давл.,
гПа
погр.,
м
18 апреля, вс
вс1823:00+5св377966 0.0 1022262
02:00+3св239139 0.0 102271
05:00+2ссв228872 0.0 102255
08:00+4с128165 0.0 1022122
11:00+9с346887 0.0 10211105
14:00+10ссв456882 0.1 10211039
17:00+7ссв4689100 0.6 1021578
20:00+6св249297 0.6 1021325
19 апреля, пн
пн1923:00+5ссв2395100 0.0 1022137
02:00+3ссв11955 0.0 102210
05:00+2ссз11948 0.0 102110
08:00+4з119099 0.0 102149
11:00+7зсз2283100 0.0 1021280
14:00+11ссз227292 0.0 1019775
17:00+13сз226275 0.3 10171110
20:00+9ссз228596 1.9 101723
20 апреля, вт
вт2023:00+7ссз118867 0.6 101811
02:00+5ссз119112 0.6 101810
05:00+4с119492 0.0 101810
08:00+5св119347 0.0 101864
11:00+10всв237964 0.0 1017590
14:00+14св335921 0.3 10161403
17:00+15св235324 0.3 10151694
20:00+11ссв22755 0.6 101522
21 апреля, ср
ср2123:00+8ссв11835 0.0 101710
02:00+6ссв11875 0.0 101710
05:00+5с11905 0.0 101710
08:00+7ссв11875 0.0 101857
11:00+12ссв237119 0.1 1018525
14:00+14ссв336619 1.6 10171069
17:00+15ссв235640 0.7 10161493
20:00+11ссз357624 0.8 101787
22 апреля, чт
чт2223:00+7с34895 0.0 101962
02:00+6ссв36951 0.0 1020139
05:00+4ссв22953 0.0 102148
08:00+5ссв37885 0.0 1022263
11:00+9св446919 0.0 1023778
14:00+12ссв44492 0.0 10231187
17:00+13ссв45462 0.0 10231312
20:00+9ссв38695 0.0 1024230